Regional Weather Roundup
Issued by NWS Sterling, VA

Home | Current Version | Previous Version | Text Only | Print | Product List | Glossary Off
Versions: 1 2 3 4 5 6 7 8 9 10 11 12 13 14 15 16 17 18 19 20 21 22 23 24 25 26 27 28 29 30 31 32 33 34 35 36 37 38 39 40 41 42 43 44 45 46 47 48 49 50

000
ASUS41 KLWX 210411
RWRLWX

REGIONAL WEATHER ROUNDUP
NATIONAL WEATHER SERVICE BALTIMORE MD/WASHINGTON DC
1100 PM EST FRI JAN 20 2017

Note: "FAIR" indicates few or no clouds below 12,000 feet
with no significant weather and/or obstructions to visibility.
 TC=TEMPERATURE CELSIUS

 * =Non NWS site. Station does not report precipitation (e.g. rain,
    snow, etc.), thunder, or fog.

DCZ001-MDZ009-015-VAZ040>042-051-053>054-210500-
WASHINGTON METRO

CITY           SKY/WX    TMP DP  RH WIND       PRES   REMARKS
WASHINGTON NAT CLOUDY    47  47 100 S5        29.92R
DULLES         CLOUDY    47  45  93 S6        29.90S FOG
ANDREWS AFB    CLOUDY    46  45  97 S3        29.91R FOG
FT BELVOIR     CLOUDY    47  46  95 CALM      29.92R
QUANTICO       FOG       46  46 100 S6        29.92F VSB 1/2
COLLEGE PARK*  CLOUDY    45  43  93 CALM      29.91S
LEESBURG*      CLOUDY    48  48 100 S5        29.91R FOG
GAITHERSBURG*  CLOUDY    46  43  87 S3        29.94R

$$

MDZ006>007-011-014-210500-
BALTIMORE METRO

CITY           SKY/WX    TMP DP  RH WIND       PRES   REMARKS
BWI AIRPORT    CLOUDY    44  44 100 CALM      29.91S FOG
MD SCIENCE CTR   N/A     45  42  89 MISG      29.92F
ANNAPOLIS      CLOUDY    43  42  97 SE5       29.92S FOG
FORT MEADE*    CLOUDY    43  41  93 CALM      29.94R

$$

MDZ012-015-019>023-210500-
MARYLAND EASTERN SHORE

CITY           SKY/WX    TMP DP  RH WIND       PRES   REMARKS
OCEAN CITY     CLOUDY    46  46 100 CALM      29.93R FOG
SALISBURY      CLOUDY    45  45 100 CALM      29.93R FOG
BAY BRIDGE AP* CLOUDY    45  43  93 S6        29.93S FOG
CAMBRIDGE*     CLOUDY    45  43  93 CALM      29.93R
EASTON*        CLOUDY    47  44  90 SW3       29.96S FOG

$$

MDZ017>025-210500-
SOUTHERN MARYLAND

CITY           SKY/WX    TMP DP  RH WIND       PRES   REMARKS
PATUXENT RIVER CLOUDY    46  45  96 S3        29.92S FOG
ST INIGOES     CLOUDY    46  44  93 SE3       29.92S FOG
LEONARDTOWN*   CLOUDY    45  43  93 CALM      29.94S

$$

MDZ003>005-210500-
NORTH CENTRAL MARYLAND

CITY           SKY/WX    TMP DP  RH WIND       PRES   REMARKS
FREDERICK*     FOG       41  41 100 CALM      29.93S VSB 3/4
HAGERSTOWN APT CLOUDY    43  39  86 CALM      29.89R FOG
WESTMINSTER*   FOG       43  43 100 CALM      29.89S VSB 3/4

$$

MDZ501>502-210500-
WESTERN MARYLAND

CITY           SKY/WX    TMP DP  RH WIND       PRES   REMARKS
OAKLAND*         N/A     45  45 100 SW6       29.86R
CUMBERLAND*    CLOUDY    43  43 100 CALM      29.93R

$$

VAZ025>031-210500-
SHENANDOAH VALLEY

CITY           SKY/WX    TMP DP  RH WIND       PRES   REMARKS
WINCHESTER*    CLOUDY    34  34 100 CALM      29.88S FOG
FRONT ROYAL*   CLOUDY    39  39 100 CALM      29.87S
LURAY*         CLOUDY    41  41 100 CALM      29.88S FOG
NEW MARKET*    CLOUDY    38  38  97 CALM      29.88S VSB 3/4
STAUNTON*      FOG       39  39 100 CALM      29.91R VSB 1/4
WAYNESBORO*    CLOUDY    42  41  96 CALM      29.89R VSB<1/4

$$

WVZ021-048>050-054>055-210500-
EASTERN WEST VIRGINIA PANHANDLE

CITY           SKY/WX    TMP DP  RH WIND       PRES   REMARKS
MARTINSBURG    CLOUDY    42  41  96 CALM      29.89R FOG
PETERSBURG*    FOG       37  37  99 CALM      29.90R VSB 1

$$

VAZ036>039-050-210500-
CENTRAL FOOTHILLS

CITY           SKY/WX    TMP DP  RH WIND       PRES   REMARKS
CHARLOTTESVILL CLOUDY    50  48  93 S5        29.90S
CULPEPER*      CLOUDY    49  49  98 CALM      29.92S FOG
ORANGE*          N/A     50  50 100 S3        29.93S FOG
GORDONSVILLE*  CLOUDY    48  48 100 SW6       29.91R FOG
WARRENTON*     CLOUDY    49  46  90 CALM      29.90S FOG

$$

VAZ055>057-210500-
NORTH AND CENTRAL PIEDMONT

CITY           SKY/WX    TMP DP  RH WIND       PRES   REMARKS
FREDERICKSBRG* CLOUDY    48  48 100 CALM      29.91F FOG
STAFFORD*      CLOUDY    47  47 100 CALM      29.95F FOG

$$

NCZ024-NYZ072-PAZ021-071-VAZ022-071-210500-
OTHER REGIONAL OBSERVATIONS

CITY           SKY/WX    TMP DP  RH WIND       PRES   REMARKS
NEW YORK CITY  CLOUDY    41  40  96 S5        29.94S FOG
PHILADELPHIA   CLOUDY    42  40  92 S3        29.93S
PITTSBURGH     PTCLDY    51  50  96 S5        29.81R
ROANOKE        FOG       48  48 100 W3        29.94R VSB 1/4
RICHMOND       DRZL/FOG  47  47 100 SE6       29.92S VSB 1/4
RALEIGH        CLOUDY    51  50  96 CALM      29.93R FOG

$$

ANZ530>537-210500-
MARINE OBSERVATIONS

STATION/POSITION TIME  TEMP    WIND        PRES
                       AIR SEA DIR/SP/G
                 (UTC) (F)     (DEG/KT/KT) (MB)
THOMAS PT LIGHT  0400   42 40  180/  8/  8   N/A
BALT KEY BRIDGE  0348   42      80/  5/  5 1013.1F
COVE POINT       0348   43     190/  5/  5 1014.0R
LEWISETTA        0348   46 44  200/  2/  2 1013.1R
SOLOMONS ISLAND  0348   44 41  120/  2/  3   N/A
PINEY POINT      0342          140/  5/  6   N/A

$$




USA.gov is the U.S. government's official web portal to all federal, state and local government web resources and services.